User: anonymous   Login
Location: Unspecified
(0.0000°N, 0.0000°E)
Time: 13:24:52
(UTC+00:00)
Language:

AGILE - Orbit

View from above orbital plane
View from above orbital plane
View from above satellite
View from above satellite

Ground track
Ground track

The orbit data is extracted from the following two-line orbital elements,

1 31135U 07013A   19047.85095125 +.00002120 +00000-0 +31524-4 0  9994
2 31135 002.4685 035.2444 0012066 141.1192 218.9730 15.31345090289905
Epoch (UTC): 16 February 2019 20:25:22
Eccentricity: 0.0012066
inclination: 2.4685°
perigee height: 463 km
apogee height: 480 km
right ascension of ascending node: 35.2444°
argument of perigee: 141.1192°
revolutions per day: 15.31345090
mean anomaly at epoch: 218.9730°
orbit number at epoch: 28990

The dashed part of the orbit path shows where the satellite is in the earth's shadow,  

DLR